Tracking 19817 objects as of 19-Aug-2019
HD Live streaming from Space Station
objects crossing your sky now

FENGYUN 1C DEB

Track FENGYUN 1C DEB now!
10-day predictions


NORAD ID: 31348
Int'l Code: 1999-025BRC
Perigee: 800.6 km
Apogee: 856.0 km
Inclination: 99.2 °
Period: 101.3 minutes
Semi major axis: 7199 km
RCS: 0.0184 m2 (small)
Launch date: May 10, 1999
Source: People's Republic of China (PRC)
Launch site: Taiyaun Space Center, China (TSC)

Note: This is SATELLITE DEBRIS
aabbcc
Your satellite tracking list
Your tracking list is empty




NASA's NSSDC Master Catalog

Two Line Element Set (TLE):
1 31348U 99025BRC 19230.46703053 +.00000341 +00000-0 +17755-3 0  9993
2 31348 099.2299 056.4066 0038489 201.0199 190.0334 14.21245550633812
Source of the keplerian elements: AFSPC